IUS R/B(1), 22315

Orbit data source: Space-Track

IUS R/B(1), 22315 is space debris in HEO originally from a launch on Wed, 13 Jan 1993 UTC launched from the Air Force Eastern Test Range (AFETR). Debris objects in space refer to the collection of defunct objects orbiting the Earth. Examples of debris include non-operational satellites, rocket bodies, and fragments generated from explosions, collisions, or faulty payload assembly.

Loading next visibility...
Identifier
22315, 1993-003C
Orbit
HEO
Country
Flag of USUS
Related business
Manufacturer
UTC CSD
Mission
Spacecraft
Bus & Motor
ORBUS 21, Unknown motor
Mass
1,164 kg wet, ~1,164 kg dry
Launch date (UTC)
1993-01-13 (33 years ago)
Launch vehicle
Unknown
Launch site
Air Force Eastern Test Range (AFETR)
Object type
Payload
Rocket body
Debris
Shape & HBR
Cyl, Unknown HBR
Radar Cross Section
7.708 m², Large (>1 m²)

Expand to show TLE details & history
Last TLE update: 2 days ago

TLE from 2 days ago
0 IUS R/B(1)
1 22315U 93003C   25259.53037199  .00015755  00000-0  19679-2 0  9995
2 22315  26.8794 105.5712 6056057  65.4331 344.8222  3.98124368172372
Epoch: 2025-09-16T12:43Z
TLE epoch observation values (Epoch: 2025-09-16T12:43:44.139Z)
Latitude
-0.00021°
Longitude
-81.03975°
Altitude
2,112.748 km
Speed
8.378 km/s
True Right ascension
07h 02m 27s
True Declination
0° 00' 01"
Sunlit
Object was in daylight at epoch
Visualization orbit readout
Latitude
Unknown
Longitude
Unknown
Altitude
Unknown
Speed
Unknown
Apparent Right ascension
Unknown
Apparent Declination
Unknown
Sunlit
N/A
Visualization observer readout
Local Sidereal Time
19:12:45
Azimuth
Unknown
Elevation
Unknown
Doppler factor
Unknown
Orbital elements
Apogee altitude
20,627.53 km
Perigee altitude
255.423 km
Semi-major axis
16,819.614 km
Eccentricity
0.60561
Inclination
26.8794°
RAAN
105.5712°
Arg. of periapsis
65.4331°
True anomaly
294.8224°
Mean anomaly
344.8222°
Eccentric anomaly
324.84114°
Mean motion
0.99499 °/min
Orbital period
361.81 mins
BSTAR
0.0019679
Loading maneuver chart data...
Computing Atmospheric mass density...
Loading historical data...
Loading historical data...
Loading historical data...
Loading historical data...
Loading historical data...
Loading historical data...
Loading historical data...
Other satellites on launch #3 in the year 1993 (1993-01-13 UTC)

Documentation

Showing up to 5 results
|